Regional Weather Roundup
Issued by NWS Newport/Morehead, NC

Current Version | Previous Version | Graphics & Text | Print | Product List | Glossary On
Versions: 1 2 3 4 5 6 7 8 9 10 11 12 13 14 15 16 17 18 19 20 21 22 23 24 25 26 27 28 29 30 31 32 33 34 35 36 37 38 39 40 41 42 43 44 45 46 47 48 49 50
000 ASUS42 KMHX 300222 RWRMHX WEATHER ROUNDUP FOR EASTERN NORTH CAROLINA NATIONAL WEATHER SERVICE NEWPORT/MOREHEAD CITY NC 1000 PM EDT WED OCT 29 2014 NOTE: "FAIR" INDICATES FEW OR NO CLOUDS BELOW 12,000 FEET WITH NO SIGNIFICANT WEATHER AND/OR OBSTRUCTIONS TO VISIBILITY NCZ015>017-031-032-045>047-102-103-300300- NORTH COAST CITY SKY/WX TMP DP RH WIND PRES REMARKS EDENTON DRIZZLE 66 60 80 NW13 29.96R ELIZABETH CITY CLOUDY 65 57 75 N8 29.95R KITTY HAWK MOCLDY 67 64 90 W5 29.92S MANTEO MOCLDY 66 64 91 SW5 29.93F $$ NCZ045>047-081-094-103-104-300300- CENTRAL COAST CITY SKY/WX TMP DP RH WIND PRES REMARKS FRISCO PTCLDY 71 67 87 SW9 29.94F SWANQUARTER N/A 68 N/A N/A SW9 29.91S $$ NCZ095-097-098-100-101-300300- SOUTHERN COAST CITY SKY/WX TMP DP RH WIND PRES REMARKS BEAUFORT MOCLDY 70 67 90 SW8 29.95S CEDAR ISLAND N/A 68 N/A N/A S5G12 29.97S JACKSONVILLE CLOUDY 69 63 81 SW6 29.94S PINEY ISLAND MOCLDY 68 63 84 S7 29.94S WILMINGTON CLOUDY 71 65 81 SW10 29.95S $$ NCZ011>013-027>030-043-044-078>080-089-090>093-098-300300- COASTAL PLAIN CITY SKY/WX TMP DP RH WIND PRES REMARKS AHOSKIE NOT AVBL CLINTON CLOUDY 68 62 79 CALM 29.96R ELIZABETHTOWN CLOUDY 67 65 93 S3 29.95F GOLDSBORO LGT RAIN 64 64 100 N3 29.95R GREENVILLE MOCLDY 61 59 94 N8 29.98S HAVELOCK MOCLDY 69 64 84 S7 29.96R KENANSVILLE CLOUDY 68 61 77 NW3 29.96R KINSTON PTCLDY 66 61 82 N6 29.96R NEW BERN CLOUDY 69 63 81 S7 29.95S RICHLANDS MOCLDY 68 61 77 SW7 29.94S ROCKY MOUNT CLOUDY 61 58 90 N8 29.97R WASHINGTON CLOUDY 64 60 86 N13G22 29.96R WHITEVILLE CLOUDY 67 65 95 CALM 29.95S $$ AMZ130-135-150-152-154-156-158-170-250-252-270-ANZ085-086-088-633-658-670-300300- MARINE OBSERVATIONS STATION/POSITION TIME TEMP WIND PRES WAVE SWELL AIR SEA DIR/SP/G HT/PER HT/PER (UTC) (F) (DEG/KT/KT) (MB) (FT/S) (FT/S) CHESAPEAKE LIGHT 0200 60 360/ 22/ 23 1014.8 64 E VA BEACH 0200 69 67 240/ 10/ 12 1012.8 3/ 7 3/ 7 DUCK 0200 65 68 10/ 17/ 19 1012.9 2 E DUCK NOT AVBL 10 NE DUCK 0200 67 N/A 3/ 7 OREGON INLET 0200 68 69 200/ 12/ 13 1013.3 13E OREGON INLT 0200 70 N/A 3/ 7 HATTERAS CG 0200 72 72 230/ 8/ 11 1014.4 DIAMOND BUOY 0200 76 220/ 17/ 19 1013.9 3/ 5 2/10 17 S OCRACOKE 0100 VRB 17/ 21 1014.1 CAPE LOOKOUT 0200 72 220/ 9/ 12 1014.2 BEAUFORT LAB 0200 71 71 220/ 4/ 7 1013.6 30 SE NEW RIVER 0200 75 74 230/ 16/ 19 1013.8 3/ 4 5 SE WRIGHTSVLE 0200 69 71 240/ 12/ 14 N/A 225 S CAPE HAT 0148 75 76 190/ 8/ 10 1017.4 2/ 9 2/ 9 41 SE CHARLESTON 0200 76 77 200/ 12/ 14 1014.8 2/ 4 2/ 7 $$

USA.gov is the U.S. government's official web portal to all federal, state and local government web resources and services.